Terminal Aerodrome Forecast
Issued by NWS Atlanta, GA

Home | Current Version | Previous Version | Text Only | Print | Product List | Glossary On
Versions: 1 2 3 4 5 6 7 8 9 10 11 12 13 14 15 16 17 18 19 20 21
000
FTUS42 KFFC 041121
TAFMCN
TAF
KMCN 041121Z 0412/0512 14003KT P6SM SCT250
     FM041700 28005KT P6SM SCT040
     FM050200 20003KT P6SM FEW090 FEW250=

USA.gov is the U.S. government's official web portal to all federal, state and local government web resources and services.